Погода в Белово

Россия / Кемеровская область (Кузбасс)     54°25′19″N   86°18′13″E
темп.,
°C
ветер,
м/с
пор.,
м/с
влажн.,
%
обл.,
%
осадки,
мм/ч
давл.,
гПа
погр.,
м
22 января, сб
сб2201:00−24зюз11100100 0.0 10329
04:00−25юз1110098 0.0 10329
07:00−26ююз0010093 0.0 10339
10:00−26ююв1110083 0.0 10349
13:00−17юв119433 0.0 103376
16:00−14всв11945 0.0 103310
19:00−21в1110037 0.0 10359
22:00−24ююв1110037 0.0 10369
23 января, вс
вс2301:00−25юв1110058 0.0 10379
04:00−25юв1110064 0.0 10369
07:00−26юв0110086 0.0 10379
10:00−24юв11100100 0.0 103710
13:00−16з0194100 0.0 103689
16:00−14ссз0092100 0.0 103571
19:00−16ююв0097100 0.0 103613
22:00−14зсз0197100 0.2 103638
24 января, пн
пн2401:00−15зсз1197100 0.4 103628
04:00−15сз2297100 0.5 103666
07:00−21зсз2210088 0.6 103810
10:00−24зсз21100100 0.1 104121
13:00−18зсз119794 0.1 1041105
16:00−17з11965 0.0 104129
19:00−24ю1110026 0.0 10439
22:00−24ююв1110095 0.0 10449
25 января, вт
вт2501:00−25ююв1110070 0.0 10449
04:00−25юв1110081 0.0 10439
07:00−22юв1110093 0.0 104230
10:00−21юв1199100 0.0 104225
13:00−15юв119294 0.0 1041112
16:00−14всв119324 0.0 104034
19:00−22вюв1110052 0.0 10409
22:00−24ююв1110085 0.0 10419
26 января, ср
ср2601:00−23юв11100100 0.0 10419
04:00−25юв1110078 0.0 10419
07:00−27юв1110096 0.0 10419
10:00−25юв1110077 0.0 10409
13:00−16вюв129254 0.0 1038112
16:00−14в11935 0.0 103741
19:00−21в1110010 0.0 10379
22:00−24юв1110051 0.0 10379